Simultaneous Nadir Overpasses (SNOs) Predictions

Prediction of SNOs between LANDSAT-8 and NPP Satellite Orbit:

Table of predicted SNOs for the next 14.0 days since TLE Epoch: 12/6/2015
Index Date (LANDSAT-8) Time (LANDSAT-8) Lat,Lon (LANDSAT-8) SZA (LANDSAT-8 ) Date (NPP) Time (NPP) Lat,Lon (NPP) SZA (NPP ) Distance(km) Time Diff (sec)
1 12/08/2015 13:03:03 70.39, -18.90 92.99 12/08/2015 13:01:53 70.36, -18.90 92.97 3.08 70
2 12/08/2015 13:52:33 -70.27, 148.57 87.12 12/08/2015 13:52:35 -70.25, 148.57 87.14 1.68 2
3 12/08/2015 14:42:04 69.95, -44.24 92.57 12/08/2015 14:43:15 69.94, -43.64 92.55 23.08 71
4 12/11/2015 05:19:32 70.33, 96.91 93.20 12/11/2015 05:18:46 70.31, 96.93 93.18 2.38 46
5 12/11/2015 06:09:02 -70.22, -95.62 86.92 12/11/2015 06:09:28 -70.21, -95.59 86.93 1.73 26
6 12/13/2015 20:46:19 -71.20, 46.47 85.75 12/13/2015 20:45:12 -71.26, 43.84 85.65 94.43 67
7 12/13/2015 21:36:01 70.27,-147.29 93.34 12/13/2015 21:35:39 70.28,-147.24 93.35 2.00 22
8 12/13/2015 22:25:31 -70.16, 20.19 86.77 12/13/2015 22:26:21 -70.17, 20.24 86.77 2.19 50
9 12/16/2015 13:03:02 -70.37, 161.08 86.43 12/16/2015 13:01:49 -70.39, 161.04 86.40 3.03 73
10 12/16/2015 13:52:29 70.26, -31.43 93.47 12/16/2015 13:52:32 70.24, -31.42 93.46 1.76 3
11 12/16/2015 14:42:00 -70.10, 135.97 86.69 12/16/2015 14:43:13 -70.08, 136.15 86.71 6.74 73
12 12/19/2015 05:19:29 -70.34, -83.07 86.36 12/19/2015 05:18:41 -70.36, -83.14 86.33 3.37 48
13 12/19/2015 06:08:56 70.23, 84.42
